Location: Bazugues
(43.4465°N, 0.3432°E)
Time: 15:21:29
(UTC+00:00)

Landsat 7 - Pass Details

Date: 12 January 2026
Orbit: 680 x 682 km, 97.9° (Epoch: 18 February)

Event Time Altitude Azimuth Distance (km) Brightness Sun altitude
Rises 17:29:54 0° 167° (SSE) 3,029 7.2 -8.3°
Reaches altitude 10° 17:32:07 10° 168° (SSE) 2,119 6.4 -8.6°
Maximum altitude 17:36:46 85° 255° (WSW) 692 3.9 -9.4°
Drops below altitude 10° 17:41:27 10° 346° (NNW) 2,135 6.3 -10.2°
Sets 17:43:42 0° 347° (NNW) 3,054 7.0 -10.6°
